Index of /20260428/WXO-DD/model_gdps/15km/00/018
Name Last modified Size Description
Parent Directory -
20260428T00Z_MSC_GDPS_AbsoluteVorticity_IsbL-0200_LatLon0.15_PT018H.grib2 2026-04-28 04:00 1.2M
20260428T00Z_MSC_GDPS_AbsoluteVorticity_IsbL-0250_LatLon0.15_PT018H.grib2 2026-04-28 04:00 1.3M
20260428T00Z_MSC_GDPS_AbsoluteVorticity_IsbL-0500_LatLon0.15_PT018H.grib2 2026-04-28 04:00 1.2M
20260428T00Z_MSC_GDPS_AbsoluteVorticity_IsbL-0700_LatLon0.15_PT018H.grib2 2026-04-28 04:00 1.3M
20260428T00Z_MSC_GDPS_AbsoluteVorticity_IsbL-0850_LatLon0.15_PT018H.grib2 2026-04-28 04:00 1.6M
20260428T00Z_MSC_GDPS_AirTemp-Max_AGL-2m_LatLon0.15_PT018H.grib2 2026-04-28 04:00 741K
20260428T00Z_MSC_GDPS_AirTemp-Min_AGL-2m_LatLon0.15_PT018H.grib2 2026-04-28 04:00 794K
20260428T00Z_MSC_GDPS_AirTemp_AGL-120m_LatLon0.15_PT018H.grib2 2026-04-28 04:00 914K
20260428T00Z_MSC_GDPS_AirTemp_AGL-2m_LatLon0.15_PT018H.grib2 2026-04-28 04:00 1.0M
20260428T00Z_MSC_GDPS_AirTemp_AGL-40m_LatLon0.15_PT018H.grib2 2026-04-28 04:00 817K
20260428T00Z_MSC_GDPS_AirTemp_AGL-80m_LatLon0.15_PT018H.grib2 2026-04-28 04:00 923K
20260428T00Z_MSC_GDPS_AirTemp_IsbL-0001_LatLon0.15_PT018H.grib2 2026-04-28 04:00 651K
20260428T00Z_MSC_GDPS_AirTemp_IsbL-0005_LatLon0.15_PT018H.grib2 2026-04-28 04:00 691K
20260428T00Z_MSC_GDPS_AirTemp_IsbL-0010_LatLon0.15_PT018H.grib2 2026-04-28 04:00 768K
20260428T00Z_MSC_GDPS_AirTemp_IsbL-0020_LatLon0.15_PT018H.grib2 2026-04-28 04:00 788K
20260428T00Z_MSC_GDPS_AirTemp_IsbL-0030_LatLon0.15_PT018H.grib2 2026-04-28 04:00 755K
20260428T00Z_MSC_GDPS_AirTemp_IsbL-0050_LatLon0.15_PT018H.grib2 2026-04-28 04:00 809K
20260428T00Z_MSC_GDPS_AirTemp_IsbL-0100_LatLon0.15_PT018H.grib2 2026-04-28 04:00 962K
20260428T00Z_MSC_GDPS_AirTemp_IsbL-0150_LatLon0.15_PT018H.grib2 2026-04-28 04:00 1.0M
20260428T00Z_MSC_GDPS_AirTemp_IsbL-0175_LatLon0.15_PT018H.grib2 2026-04-28 04:00 971K
20260428T00Z_MSC_GDPS_AirTemp_IsbL-0200_LatLon0.15_PT018H.grib2 2026-04-28 04:00 1.0M
20260428T00Z_MSC_GDPS_AirTemp_IsbL-0225_LatLon0.15_PT018H.grib2 2026-04-28 04:00 1.0M
20260428T00Z_MSC_GDPS_AirTemp_IsbL-0250_LatLon0.15_PT018H.grib2 2026-04-28 04:00 1.0M
20260428T00Z_MSC_GDPS_AirTemp_IsbL-0275_LatLon0.15_PT018H.grib2 2026-04-28 04:00 1.0M
20260428T00Z_MSC_GDPS_AirTemp_IsbL-0300_LatLon0.15_PT018H.grib2 2026-04-28 04:00 1.0M
20260428T00Z_MSC_GDPS_AirTemp_IsbL-0350_LatLon0.15_PT018H.grib2 2026-04-28 04:00 940K
20260428T00Z_MSC_GDPS_AirTemp_IsbL-0400_LatLon0.15_PT018H.grib2 2026-04-28 04:00 949K
20260428T00Z_MSC_GDPS_AirTemp_IsbL-0450_LatLon0.15_PT018H.grib2 2026-04-28 04:00 971K
20260428T00Z_MSC_GDPS_AirTemp_IsbL-0500_LatLon0.15_PT018H.grib2 2026-04-28 04:00 1.0M
20260428T00Z_MSC_GDPS_AirTemp_IsbL-0550_LatLon0.15_PT018H.grib2 2026-04-28 04:00 812K
20260428T00Z_MSC_GDPS_AirTemp_IsbL-0600_LatLon0.15_PT018H.grib2 2026-04-28 04:00 904K
20260428T00Z_MSC_GDPS_AirTemp_IsbL-0650_LatLon0.15_PT018H.grib2 2026-04-28 04:00 928K
20260428T00Z_MSC_GDPS_AirTemp_IsbL-0700_LatLon0.15_PT018H.grib2 2026-04-28 04:00 961K
20260428T00Z_MSC_GDPS_AirTemp_IsbL-0750_LatLon0.15_PT018H.grib2 2026-04-28 04:00 1.0M
20260428T00Z_MSC_GDPS_AirTemp_IsbL-0800_LatLon0.15_PT018H.grib2 2026-04-28 04:00 1.1M
20260428T00Z_MSC_GDPS_AirTemp_IsbL-0850_LatLon0.15_PT018H.grib2 2026-04-28 04:00 1.1M
20260428T00Z_MSC_GDPS_AirTemp_IsbL-0875_LatLon0.15_PT018H.grib2 2026-04-28 04:00 1.2M
20260428T00Z_MSC_GDPS_AirTemp_IsbL-0900_LatLon0.15_PT018H.grib2 2026-04-28 04:00 1.2M
20260428T00Z_MSC_GDPS_AirTemp_IsbL-0925_LatLon0.15_PT018H.grib2 2026-04-28 04:00 1.1M
20260428T00Z_MSC_GDPS_AirTemp_IsbL-0950_LatLon0.15_PT018H.grib2 2026-04-28 04:00 1.2M
20260428T00Z_MSC_GDPS_AirTemp_IsbL-0970_LatLon0.15_PT018H.grib2 2026-04-28 04:00 1.2M
20260428T00Z_MSC_GDPS_AirTemp_IsbL-0985_LatLon0.15_PT018H.grib2 2026-04-28 04:00 1.2M
20260428T00Z_MSC_GDPS_AirTemp_IsbL-1000_LatLon0.15_PT018H.grib2 2026-04-28 04:00 1.1M
20260428T00Z_MSC_GDPS_AirTemp_IsbL-1015_LatLon0.15_PT018H.grib2 2026-04-28 04:00 1.1M
20260428T00Z_MSC_GDPS_Albedo_Sfc_LatLon0.15_PT018H.grib2 2026-04-28 04:00 247K
20260428T00Z_MSC_GDPS_CAPE_Sfc_LatLon0.15_PT018H.grib2 2026-04-28 04:00 4.0M
20260428T00Z_MSC_GDPS_CIN_Sfc_LatLon0.15_PT018H.grib2 2026-04-28 04:00 2.9M
20260428T00Z_MSC_GDPS_CloudWater_EAtm_LatLon0.15_PT018H.grib2 2026-04-28 04:00 533K
20260428T00Z_MSC_GDPS_ConvectivePrecip-Accum_Sfc_LatLon0.15_PT018H.grib2 2026-04-28 04:00 2.2M
20260428T00Z_MSC_GDPS_DewPointDepression_AGL-2m_LatLon0.15_PT018H.grib2 2026-04-28 04:00 765K
20260428T00Z_MSC_GDPS_DewPointDepression_IsbL-0010_LatLon0.15_PT018H.grib2 2026-04-28 04:00 63K
20260428T00Z_MSC_GDPS_DewPointDepression_IsbL-0020_LatLon0.15_PT018H.grib2 2026-04-28 04:00 85K
20260428T00Z_MSC_GDPS_DewPointDepression_IsbL-0030_LatLon0.15_PT018H.grib2 2026-04-28 04:00 70K
20260428T00Z_MSC_GDPS_DewPointDepression_IsbL-0050_LatLon0.15_PT018H.grib2 2026-04-28 04:00 362K
20260428T00Z_MSC_GDPS_DewPointDepression_IsbL-0100_LatLon0.15_PT018H.grib2 2026-04-28 04:00 417K
20260428T00Z_MSC_GDPS_DewPointDepression_IsbL-0150_LatLon0.15_PT018H.grib2 2026-04-28 04:00 478K
20260428T00Z_MSC_GDPS_DewPointDepression_IsbL-0175_LatLon0.15_PT018H.grib2 2026-04-28 04:00 570K
20260428T00Z_MSC_GDPS_DewPointDepression_IsbL-0200_LatLon0.15_PT018H.grib2 2026-04-28 04:00 678K
20260428T00Z_MSC_GDPS_DewPointDepression_IsbL-0225_LatLon0.15_PT018H.grib2 2026-04-28 04:00 786K
20260428T00Z_MSC_GDPS_DewPointDepression_IsbL-0250_LatLon0.15_PT018H.grib2 2026-04-28 04:00 876K
20260428T00Z_MSC_GDPS_DewPointDepression_IsbL-0275_LatLon0.15_PT018H.grib2 2026-04-28 04:00 895K
20260428T00Z_MSC_GDPS_DewPointDepression_IsbL-0300_LatLon0.15_PT018H.grib2 2026-04-28 04:00 944K
20260428T00Z_MSC_GDPS_DewPointDepression_IsbL-0350_LatLon0.15_PT018H.grib2 2026-04-28 04:00 972K
20260428T00Z_MSC_GDPS_DewPointDepression_IsbL-0400_LatLon0.15_PT018H.grib2 2026-04-28 04:00 1.0M
20260428T00Z_MSC_GDPS_DewPointDepression_IsbL-0450_LatLon0.15_PT018H.grib2 2026-04-28 04:00 1.0M
20260428T00Z_MSC_GDPS_DewPointDepression_IsbL-0500_LatLon0.15_PT018H.grib2 2026-04-28 04:00 1.0M
20260428T00Z_MSC_GDPS_DewPointDepression_IsbL-0550_LatLon0.15_PT018H.grib2 2026-04-28 04:00 1.0M
20260428T00Z_MSC_GDPS_DewPointDepression_IsbL-0600_LatLon0.15_PT018H.grib2 2026-04-28 04:00 1.0M
20260428T00Z_MSC_GDPS_DewPointDepression_IsbL-0650_LatLon0.15_PT018H.grib2 2026-04-28 04:00 1.1M
20260428T00Z_MSC_GDPS_DewPointDepression_IsbL-0700_LatLon0.15_PT018H.grib2 2026-04-28 04:00 1.1M
20260428T00Z_MSC_GDPS_DewPointDepression_IsbL-0750_LatLon0.15_PT018H.grib2 2026-04-28 04:00 1.1M
20260428T00Z_MSC_GDPS_DewPointDepression_IsbL-0800_LatLon0.15_PT018H.grib2 2026-04-28 04:00 1.2M
20260428T00Z_MSC_GDPS_DewPointDepression_IsbL-0850_LatLon0.15_PT018H.grib2 2026-04-28 04:00 1.2M
20260428T00Z_MSC_GDPS_DewPointDepression_IsbL-0875_LatLon0.15_PT018H.grib2 2026-04-28 04:00 1.1M
20260428T00Z_MSC_GDPS_DewPointDepression_IsbL-0900_LatLon0.15_PT018H.grib2 2026-04-28 04:00 1.1M
20260428T00Z_MSC_GDPS_DewPointDepression_IsbL-0925_LatLon0.15_PT018H.grib2 2026-04-28 04:00 1.0M
20260428T00Z_MSC_GDPS_DewPointDepression_IsbL-0950_LatLon0.15_PT018H.grib2 2026-04-28 04:00 1.0M
20260428T00Z_MSC_GDPS_DewPointDepression_IsbL-0970_LatLon0.15_PT018H.grib2 2026-04-28 04:00 1.0M
20260428T00Z_MSC_GDPS_DewPointDepression_IsbL-0985_LatLon0.15_PT018H.grib2 2026-04-28 04:00 1.0M
20260428T00Z_MSC_GDPS_DewPointDepression_IsbL-1000_LatLon0.15_PT018H.grib2 2026-04-28 04:00 1.0M
20260428T00Z_MSC_GDPS_DewPointDepression_IsbL-1015_LatLon0.15_PT018H.grib2 2026-04-28 04:00 924K
20260428T00Z_MSC_GDPS_DewPoint_AGL-2m_LatLon0.15_PT018H.grib2 2026-04-28 04:00 609K
20260428T00Z_MSC_GDPS_DownwardLongwaveRadiationFlux-Accum_Sfc_LatLon0.15_PT018H.grib2 2026-04-28 04:00 863K
20260428T00Z_MSC_GDPS_DownwardShortwaveRadiationFlux-Accum_NTAtm_LatLon0.15_PT018H.grib2 2026-04-28 04:00 355K
20260428T00Z_MSC_GDPS_DownwardShortwaveRadiationFlux-Accum_Sfc_LatLon0.15_PT018H.grib2 2026-04-28 04:00 1.1M
20260428T00Z_MSC_GDPS_FreezingRain-Accum12h_Sfc_LatLon0.15_PT018H.grib2 2026-04-28 04:00 98K
20260428T00Z_MSC_GDPS_FreezingRain-Accum1h_Sfc_LatLon0.15_PT018H.grib2 2026-04-28 04:00 48K
20260428T00Z_MSC_GDPS_FreezingRain-Accum3h_Sfc_LatLon0.15_PT018H.grib2 2026-04-28 04:00 57K
20260428T00Z_MSC_GDPS_FreezingRain-Accum6h_Sfc_LatLon0.15_PT018H.grib2 2026-04-28 04:00 76K
20260428T00Z_MSC_GDPS_FreezingRain-Accum_Sfc_LatLon0.15_PT018H.grib2 2026-04-28 04:00 146K
20260428T00Z_MSC_GDPS_GeopotentialHeight_IsbL-0001_LatLon0.15_PT018H.grib2 2026-04-28 04:00 403K
20260428T00Z_MSC_GDPS_GeopotentialHeight_IsbL-0005_LatLon0.15_PT018H.grib2 2026-04-28 04:00 509K
20260428T00Z_MSC_GDPS_GeopotentialHeight_IsbL-0010_LatLon0.15_PT018H.grib2 2026-04-28 04:00 490K
20260428T00Z_MSC_GDPS_GeopotentialHeight_IsbL-0020_LatLon0.15_PT018H.grib2 2026-04-28 04:00 426K
20260428T00Z_MSC_GDPS_GeopotentialHeight_IsbL-0030_LatLon0.15_PT018H.grib2 2026-04-28 04:00 586K
20260428T00Z_MSC_GDPS_GeopotentialHeight_IsbL-0050_LatLon0.15_PT018H.grib2 2026-04-28 04:00 584K
20260428T00Z_MSC_GDPS_GeopotentialHeight_IsbL-0100_LatLon0.15_PT018H.grib2 2026-04-28 04:00 617K
20260428T00Z_MSC_GDPS_GeopotentialHeight_IsbL-0150_LatLon0.15_PT018H.grib2 2026-04-28 04:00 637K
20260428T00Z_MSC_GDPS_GeopotentialHeight_IsbL-0175_LatLon0.15_PT018H.grib2 2026-04-28 04:00 642K
20260428T00Z_MSC_GDPS_GeopotentialHeight_IsbL-0200_LatLon0.15_PT018H.grib2 2026-04-28 04:00 484K
20260428T00Z_MSC_GDPS_GeopotentialHeight_IsbL-0225_LatLon0.15_PT018H.grib2 2026-04-28 04:00 650K
20260428T00Z_MSC_GDPS_GeopotentialHeight_IsbL-0250_LatLon0.15_PT018H.grib2 2026-04-28 04:00 649K
20260428T00Z_MSC_GDPS_GeopotentialHeight_IsbL-0275_LatLon0.15_PT018H.grib2 2026-04-28 04:00 650K
20260428T00Z_MSC_GDPS_GeopotentialHeight_IsbL-0300_LatLon0.15_PT018H.grib2 2026-04-28 04:00 643K
20260428T00Z_MSC_GDPS_GeopotentialHeight_IsbL-0350_LatLon0.15_PT018H.grib2 2026-04-28 04:00 639K
20260428T00Z_MSC_GDPS_GeopotentialHeight_IsbL-0400_LatLon0.15_PT018H.grib2 2026-04-28 04:00 631K
20260428T00Z_MSC_GDPS_GeopotentialHeight_IsbL-0450_LatLon0.15_PT018H.grib2 2026-04-28 04:00 620K
20260428T00Z_MSC_GDPS_GeopotentialHeight_IsbL-0500_LatLon0.15_PT018H.grib2 2026-04-28 04:00 609K
20260428T00Z_MSC_GDPS_GeopotentialHeight_IsbL-0550_LatLon0.15_PT018H.grib2 2026-04-28 04:00 596K
20260428T00Z_MSC_GDPS_GeopotentialHeight_IsbL-0600_LatLon0.15_PT018H.grib2 2026-04-28 04:00 527K
20260428T00Z_MSC_GDPS_GeopotentialHeight_IsbL-0650_LatLon0.15_PT018H.grib2 2026-04-28 04:00 527K
20260428T00Z_MSC_GDPS_GeopotentialHeight_IsbL-0700_LatLon0.15_PT018H.grib2 2026-04-28 04:00 526K
20260428T00Z_MSC_GDPS_GeopotentialHeight_IsbL-0750_LatLon0.15_PT018H.grib2 2026-04-28 04:00 528K
20260428T00Z_MSC_GDPS_GeopotentialHeight_IsbL-0800_LatLon0.15_PT018H.grib2 2026-04-28 04:00 703K
20260428T00Z_MSC_GDPS_GeopotentialHeight_IsbL-0850_LatLon0.15_PT018H.grib2 2026-04-28 04:00 713K
20260428T00Z_MSC_GDPS_GeopotentialHeight_IsbL-0875_LatLon0.15_PT018H.grib2 2026-04-28 04:00 717K
20260428T00Z_MSC_GDPS_GeopotentialHeight_IsbL-0900_LatLon0.15_PT018H.grib2 2026-04-28 04:00 727K
20260428T00Z_MSC_GDPS_GeopotentialHeight_IsbL-0925_LatLon0.15_PT018H.grib2 2026-04-28 04:00 735K
20260428T00Z_MSC_GDPS_GeopotentialHeight_IsbL-0950_LatLon0.15_PT018H.grib2 2026-04-28 04:00 741K
20260428T00Z_MSC_GDPS_GeopotentialHeight_IsbL-0970_LatLon0.15_PT018H.grib2 2026-04-28 04:00 755K
20260428T00Z_MSC_GDPS_GeopotentialHeight_IsbL-0985_LatLon0.15_PT018H.grib2 2026-04-28 04:00 771K
20260428T00Z_MSC_GDPS_GeopotentialHeight_IsbL-1000_LatLon0.15_PT018H.grib2 2026-04-28 04:00 794K
20260428T00Z_MSC_GDPS_GeopotentialHeight_IsbL-1015_LatLon0.15_PT018H.grib2 2026-04-28 04:00 817K
20260428T00Z_MSC_GDPS_Humidex_Sfc_LatLon0.15_PT018H.grib2 2026-04-28 04:00 5.3M
20260428T00Z_MSC_GDPS_IcePellets-Accum12h_Sfc_LatLon0.15_PT018H.grib2 2026-04-28 04:00 18K
20260428T00Z_MSC_GDPS_IcePellets-Accum1h_Sfc_LatLon0.15_PT018H.grib2 2026-04-28 04:00 12K
20260428T00Z_MSC_GDPS_IcePellets-Accum3h_Sfc_LatLon0.15_PT018H.grib2 2026-04-28 04:00 9.2K
20260428T00Z_MSC_GDPS_IcePellets-Accum6h_Sfc_LatLon0.15_PT018H.grib2 2026-04-28 04:00 13K
20260428T00Z_MSC_GDPS_IcePellets-Accum_Sfc_LatLon0.15_PT018H.grib2 2026-04-28 04:00 29K
20260428T00Z_MSC_GDPS_KIndex_Sfc_LatLon0.15_PT018H.grib2 2026-04-28 04:00 6.5M
20260428T00Z_MSC_GDPS_LatentHeatNetFlux_Sfc_LatLon0.15_PT018H.grib2 2026-04-28 04:00 684K
20260428T00Z_MSC_GDPS_LiftedIndex-MU-VT_IsbL-0500_LatLon0.15_PT018H.grib2 2026-04-28 04:00 5.3M
20260428T00Z_MSC_GDPS_NetLongwaveRadiationFlux-Accum_Sfc_LatLon0.15_PT018H.grib2 2026-04-28 04:00 1.1M
20260428T00Z_MSC_GDPS_NetShortwaveRadiationFlux-Accum_Sfc_LatLon0.15_PT018H.grib2 2026-04-28 04:00 1.0M
20260428T00Z_MSC_GDPS_O3MixingRatio_LatLon0.15_PT018H.grib2 2026-04-28 04:52 2.1M
20260428T00Z_MSC_GDPS_O3_EAtm_LatLon0.15_PT018H.grib2 2026-04-28 04:52 2.5M
20260428T00Z_MSC_GDPS_PlanetaryBoundaryLayerHeight_Sfc_LatLon0.15_PT018H.grib2 2026-04-28 04:00 2.5M
20260428T00Z_MSC_GDPS_Precip-Accum12h_Sfc_LatLon0.15_PT018H.grib2 2026-04-28 04:00 4.1M
20260428T00Z_MSC_GDPS_Precip-Accum1h_Sfc_LatLon0.15_PT018H.grib2 2026-04-28 04:00 3.3M
20260428T00Z_MSC_GDPS_Precip-Accum3h_Sfc_LatLon0.15_PT018H.grib2 2026-04-28 04:00 3.6M
20260428T00Z_MSC_GDPS_Precip-Accum6h_Sfc_LatLon0.15_PT018H.grib2 2026-04-28 04:00 3.9M
20260428T00Z_MSC_GDPS_Precip-Accum_Sfc_LatLon0.15_PT018H.grib2 2026-04-28 04:00 4.2M
20260428T00Z_MSC_GDPS_PrecipRate_Sfc_LatLon0.15_PT018H.grib2 2026-04-28 04:00 3.0M
20260428T00Z_MSC_GDPS_PrecipType-Instant_Sfc_LatLon0.15_PT018H.grib2 2026-04-28 04:00 1.6M
20260428T00Z_MSC_GDPS_Pressure_MSL_LatLon0.15_PT018H.grib2 2026-04-28 04:00 833K
20260428T00Z_MSC_GDPS_Pressure_PVU-1.5_LatLon0.15_PT018H.grib2 2026-04-28 04:00 5.8M
20260428T00Z_MSC_GDPS_Pressure_PVU-1_LatLon0.15_PT018H.grib2 2026-04-28 04:00 6.0M
20260428T00Z_MSC_GDPS_Pressure_PVU-2_LatLon0.15_PT018H.grib2 2026-04-28 04:00 5.6M
20260428T00Z_MSC_GDPS_Pressure_Sfc_LatLon0.15_PT018H.grib2 2026-04-28 04:00 1.1M
20260428T00Z_MSC_GDPS_RadiativeTemp_Sfc_LatLon0.15_PT018H.grib2 2026-04-28 04:00 488K
20260428T00Z_MSC_GDPS_Rain-Accum12h_Sfc_LatLon0.15_PT018H.grib2 2026-04-28 04:00 2.8M
20260428T00Z_MSC_GDPS_Rain-Accum1h_Sfc_LatLon0.15_PT018H.grib2 2026-04-28 04:00 1.7M
20260428T00Z_MSC_GDPS_Rain-Accum3h_Sfc_LatLon0.15_PT018H.grib2 2026-04-28 04:00 1.7M
20260428T00Z_MSC_GDPS_Rain-Accum6h_Sfc_LatLon0.15_PT018H.grib2 2026-04-28 04:00 2.5M
20260428T00Z_MSC_GDPS_Rain-Accum_Sfc_LatLon0.15_PT018H.grib2 2026-04-28 04:00 3.1M
20260428T00Z_MSC_GDPS_RelativeHumidity_AGL-2m_LatLon0.15_PT018H.grib2 2026-04-28 04:00 1.1M
20260428T00Z_MSC_GDPS_RelativeHumidity_IsbL-0010_LatLon0.15_PT018H.grib2 2026-04-28 04:00 281K
20260428T00Z_MSC_GDPS_RelativeHumidity_IsbL-0020_LatLon0.15_PT018H.grib2 2026-04-28 04:00 299K
20260428T00Z_MSC_GDPS_RelativeHumidity_IsbL-0030_LatLon0.15_PT018H.grib2 2026-04-28 04:00 269K
20260428T00Z_MSC_GDPS_RelativeHumidity_IsbL-0050_LatLon0.15_PT018H.grib2 2026-04-28 04:00 419K
20260428T00Z_MSC_GDPS_RelativeHumidity_IsbL-0100_LatLon0.15_PT018H.grib2 2026-04-28 04:00 517K
20260428T00Z_MSC_GDPS_RelativeHumidity_IsbL-0150_LatLon0.15_PT018H.grib2 2026-04-28 04:00 673K
20260428T00Z_MSC_GDPS_RelativeHumidity_IsbL-0175_LatLon0.15_PT018H.grib2 2026-04-28 04:00 596K
20260428T00Z_MSC_GDPS_RelativeHumidity_IsbL-0200_LatLon0.15_PT018H.grib2 2026-04-28 04:00 705K
20260428T00Z_MSC_GDPS_RelativeHumidity_IsbL-0225_LatLon0.15_PT018H.grib2 2026-04-28 04:00 794K
20260428T00Z_MSC_GDPS_RelativeHumidity_IsbL-0250_LatLon0.15_PT018H.grib2 2026-04-28 04:00 868K
20260428T00Z_MSC_GDPS_RelativeHumidity_IsbL-0275_LatLon0.15_PT018H.grib2 2026-04-28 04:00 892K
20260428T00Z_MSC_GDPS_RelativeHumidity_IsbL-0300_LatLon0.15_PT018H.grib2 2026-04-28 04:00 937K
20260428T00Z_MSC_GDPS_RelativeHumidity_IsbL-0350_LatLon0.15_PT018H.grib2 2026-04-28 04:00 960K
20260428T00Z_MSC_GDPS_RelativeHumidity_IsbL-0400_LatLon0.15_PT018H.grib2 2026-04-28 04:00 1.0M
20260428T00Z_MSC_GDPS_RelativeHumidity_IsbL-0450_LatLon0.15_PT018H.grib2 2026-04-28 04:00 1.0M
20260428T00Z_MSC_GDPS_RelativeHumidity_IsbL-0500_LatLon0.15_PT018H.grib2 2026-04-28 04:00 1.0M
20260428T00Z_MSC_GDPS_RelativeHumidity_IsbL-0550_LatLon0.15_PT018H.grib2 2026-04-28 04:00 1.1M
20260428T00Z_MSC_GDPS_RelativeHumidity_IsbL-0600_LatLon0.15_PT018H.grib2 2026-04-28 04:00 1.1M
20260428T00Z_MSC_GDPS_RelativeHumidity_IsbL-0650_LatLon0.15_PT018H.grib2 2026-04-28 04:00 1.1M
20260428T00Z_MSC_GDPS_RelativeHumidity_IsbL-0700_LatLon0.15_PT018H.grib2 2026-04-28 04:00 1.1M
20260428T00Z_MSC_GDPS_RelativeHumidity_IsbL-0750_LatLon0.15_PT018H.grib2 2026-04-28 04:00 1.2M
20260428T00Z_MSC_GDPS_RelativeHumidity_IsbL-0800_LatLon0.15_PT018H.grib2 2026-04-28 04:00 1.3M
20260428T00Z_MSC_GDPS_RelativeHumidity_IsbL-0850_LatLon0.15_PT018H.grib2 2026-04-28 04:00 1.3M
20260428T00Z_MSC_GDPS_RelativeHumidity_IsbL-0875_LatLon0.15_PT018H.grib2 2026-04-28 04:00 1.3M
20260428T00Z_MSC_GDPS_RelativeHumidity_IsbL-0900_LatLon0.15_PT018H.grib2 2026-04-28 04:00 1.2M
20260428T00Z_MSC_GDPS_RelativeHumidity_IsbL-0925_LatLon0.15_PT018H.grib2 2026-04-28 04:00 1.2M
20260428T00Z_MSC_GDPS_RelativeHumidity_IsbL-0950_LatLon0.15_PT018H.grib2 2026-04-28 04:00 1.2M
20260428T00Z_MSC_GDPS_RelativeHumidity_IsbL-0970_LatLon0.15_PT018H.grib2 2026-04-28 04:00 1.2M
20260428T00Z_MSC_GDPS_RelativeHumidity_IsbL-0985_LatLon0.15_PT018H.grib2 2026-04-28 04:00 1.2M
20260428T00Z_MSC_GDPS_RelativeHumidity_IsbL-1000_LatLon0.15_PT018H.grib2 2026-04-28 04:00 1.1M
20260428T00Z_MSC_GDPS_RelativeHumidity_IsbL-1015_LatLon0.15_PT018H.grib2 2026-04-28 04:00 1.1M
20260428T00Z_MSC_GDPS_RelativeVorticity_IsbL-0200_LatLon0.15_PT018H.grib2 2026-04-28 04:00 1.5M
20260428T00Z_MSC_GDPS_RelativeVorticity_IsbL-0250_LatLon0.15_PT018H.grib2 2026-04-28 04:00 1.6M
20260428T00Z_MSC_GDPS_RelativeVorticity_IsbL-0500_LatLon0.15_PT018H.grib2 2026-04-28 04:00 1.5M
20260428T00Z_MSC_GDPS_RelativeVorticity_IsbL-0700_LatLon0.15_PT018H.grib2 2026-04-28 04:00 1.3M
20260428T00Z_MSC_GDPS_RelativeVorticity_IsbL-0850_LatLon0.15_PT018H.grib2 2026-04-28 04:00 1.6M
20260428T00Z_MSC_GDPS_Runoff-Accum_Sfc_LatLon0.15_PT018H.grib2 2026-04-28 04:00 107K
20260428T00Z_MSC_GDPS_SensibleHeatNetFlux_Sfc_LatLon0.15_PT018H.grib2 2026-04-28 04:00 628K
20260428T00Z_MSC_GDPS_ShowalterIndex_IsbL-0500_LatLon0.15_PT018H.grib2 2026-04-28 04:00 6.2M
20260428T00Z_MSC_GDPS_Snow-Accum12h_Sfc_LatLon0.15_PT018H.grib2 2026-04-28 04:00 1.4M
20260428T00Z_MSC_GDPS_Snow-Accum1h_Sfc_LatLon0.15_PT018H.grib2 2026-04-28 04:00 1.1M
20260428T00Z_MSC_GDPS_Snow-Accum3h_Sfc_LatLon0.15_PT018H.grib2 2026-04-28 04:00 929K
20260428T00Z_MSC_GDPS_Snow-Accum6h_Sfc_LatLon0.15_PT018H.grib2 2026-04-28 04:00 1.2M
20260428T00Z_MSC_GDPS_Snow-Accum_Sfc_LatLon0.15_PT018H.grib2 2026-04-28 04:00 1.7M
20260428T00Z_MSC_GDPS_SnowDensity_Sfc_LatLon0.15_PT018H.grib2 2026-04-28 04:00 261K
20260428T00Z_MSC_GDPS_SnowDepth_Sfc_LatLon0.15_PT018H.grib2 2026-04-28 04:00 1.7M
20260428T00Z_MSC_GDPS_SoilTemp_DBS-0to10cm_LatLon0.15_PT018H.grib2 2026-04-28 04:00 497K
20260428T00Z_MSC_GDPS_SoilTemp_Sfc_LatLon0.15_PT018H.grib2 2026-04-28 04:00 576K
20260428T00Z_MSC_GDPS_SoilVolumetricIceContent_Sfc_LatLon0.15_PT018H.grib2 2026-04-28 04:00 211K
20260428T00Z_MSC_GDPS_SoilVolumetricWaterContent_DBS-0to10cm_LatLon0.15_PT018H.grib2 2026-04-28 04:00 577K
20260428T00Z_MSC_GDPS_SoilVolumetricWaterContent_DBS-0to1cm_LatLon0.15_PT018H.grib2 2026-04-28 04:00 644K
20260428T00Z_MSC_GDPS_SpecificHumidity_AGL-120m_LatLon0.15_PT018H.grib2 2026-04-28 04:00 1.1M
20260428T00Z_MSC_GDPS_SpecificHumidity_AGL-2m_LatLon0.15_PT018H.grib2 2026-04-28 04:00 1.2M
20260428T00Z_MSC_GDPS_SpecificHumidity_AGL-40m_LatLon0.15_PT018H.grib2 2026-04-28 04:00 1.1M
20260428T00Z_MSC_GDPS_SpecificHumidity_AGL-80m_LatLon0.15_PT018H.grib2 2026-04-28 04:00 1.1M
20260428T00Z_MSC_GDPS_SpecificHumidity_IsbL-0001_LatLon0.15_PT018H.grib2 2026-04-28 04:00 1.3M
20260428T00Z_MSC_GDPS_SpecificHumidity_IsbL-0005_LatLon0.15_PT018H.grib2 2026-04-28 04:00 1.3M
20260428T00Z_MSC_GDPS_SpecificHumidity_IsbL-0010_LatLon0.15_PT018H.grib2 2026-04-28 04:00 1.4M
20260428T00Z_MSC_GDPS_SpecificHumidity_IsbL-0020_LatLon0.15_PT018H.grib2 2026-04-28 04:00 1.4M
20260428T00Z_MSC_GDPS_SpecificHumidity_IsbL-0030_LatLon0.15_PT018H.grib2 2026-04-28 04:00 1.4M
20260428T00Z_MSC_GDPS_SpecificHumidity_IsbL-0050_LatLon0.15_PT018H.grib2 2026-04-28 04:00 1.4M
20260428T00Z_MSC_GDPS_SpecificHumidity_IsbL-0100_LatLon0.15_PT018H.grib2 2026-04-28 04:00 1.1M
20260428T00Z_MSC_GDPS_SpecificHumidity_IsbL-0150_LatLon0.15_PT018H.grib2 2026-04-28 04:00 1.0M
20260428T00Z_MSC_GDPS_SpecificHumidity_IsbL-0175_LatLon0.15_PT018H.grib2 2026-04-28 04:00 1.3M
20260428T00Z_MSC_GDPS_SpecificHumidity_IsbL-0200_LatLon0.15_PT018H.grib2 2026-04-28 04:00 1.3M
20260428T00Z_MSC_GDPS_SpecificHumidity_IsbL-0225_LatLon0.15_PT018H.grib2 2026-04-28 04:00 1.3M
20260428T00Z_MSC_GDPS_SpecificHumidity_IsbL-0250_LatLon0.15_PT018H.grib2 2026-04-28 04:00 1.4M
20260428T00Z_MSC_GDPS_SpecificHumidity_IsbL-0275_LatLon0.15_PT018H.grib2 2026-04-28 04:00 1.3M
20260428T00Z_MSC_GDPS_SpecificHumidity_IsbL-0300_LatLon0.15_PT018H.grib2 2026-04-28 04:00 1.2M
20260428T00Z_MSC_GDPS_SpecificHumidity_IsbL-0350_LatLon0.15_PT018H.grib2 2026-04-28 04:00 1.2M
20260428T00Z_MSC_GDPS_SpecificHumidity_IsbL-0400_LatLon0.15_PT018H.grib2 2026-04-28 04:00 1.5M
20260428T00Z_MSC_GDPS_SpecificHumidity_IsbL-0450_LatLon0.15_PT018H.grib2 2026-04-28 04:00 1.6M
20260428T00Z_MSC_GDPS_SpecificHumidity_IsbL-0500_LatLon0.15_PT018H.grib2 2026-04-28 04:00 1.4M
20260428T00Z_MSC_GDPS_SpecificHumidity_IsbL-0550_LatLon0.15_PT018H.grib2 2026-04-28 04:00 1.6M
20260428T00Z_MSC_GDPS_SpecificHumidity_IsbL-0600_LatLon0.15_PT018H.grib2 2026-04-28 04:00 1.7M
20260428T00Z_MSC_GDPS_SpecificHumidity_IsbL-0650_LatLon0.15_PT018H.grib2 2026-04-28 04:00 1.5M
20260428T00Z_MSC_GDPS_SpecificHumidity_IsbL-0700_LatLon0.15_PT018H.grib2 2026-04-28 04:00 1.6M
20260428T00Z_MSC_GDPS_SpecificHumidity_IsbL-0750_LatLon0.15_PT018H.grib2 2026-04-28 04:00 1.7M
20260428T00Z_MSC_GDPS_SpecificHumidity_IsbL-0800_LatLon0.15_PT018H.grib2 2026-04-28 04:00 1.8M
20260428T00Z_MSC_GDPS_SpecificHumidity_IsbL-0850_LatLon0.15_PT018H.grib2 2026-04-28 04:00 1.9M
20260428T00Z_MSC_GDPS_SpecificHumidity_IsbL-0875_LatLon0.15_PT018H.grib2 2026-04-28 04:00 1.9M
20260428T00Z_MSC_GDPS_SpecificHumidity_IsbL-0900_LatLon0.15_PT018H.grib2 2026-04-28 04:00 1.9M
20260428T00Z_MSC_GDPS_SpecificHumidity_IsbL-0925_LatLon0.15_PT018H.grib2 2026-04-28 04:00 1.9M
20260428T00Z_MSC_GDPS_SpecificHumidity_IsbL-0950_LatLon0.15_PT018H.grib2 2026-04-28 04:00 1.6M
20260428T00Z_MSC_GDPS_SpecificHumidity_IsbL-0970_LatLon0.15_PT018H.grib2 2026-04-28 04:00 1.5M
20260428T00Z_MSC_GDPS_SpecificHumidity_IsbL-0985_LatLon0.15_PT018H.grib2 2026-04-28 04:00 1.5M
20260428T00Z_MSC_GDPS_SpecificHumidity_IsbL-1000_LatLon0.15_PT018H.grib2 2026-04-28 04:00 1.5M
20260428T00Z_MSC_GDPS_SpecificHumidity_IsbL-1015_LatLon0.15_PT018H.grib2 2026-04-28 04:00 1.5M
20260428T00Z_MSC_GDPS_SpecificHumidity_Sfc_LatLon0.15_PT018H.grib2 2026-04-28 04:00 635K
20260428T00Z_MSC_GDPS_Thickness_IsbL-0850to0700_LatLon0.15_PT018H.grib2 2026-04-28 04:00 470K
20260428T00Z_MSC_GDPS_Thickness_IsbL-1000to0500_LatLon0.15_PT018H.grib2 2026-04-28 04:00 375K
20260428T00Z_MSC_GDPS_Thickness_IsbL-1000to0850_LatLon0.15_PT018H.grib2 2026-04-28 04:00 494K
20260428T00Z_MSC_GDPS_TotalCloudCover_Sfc_LatLon0.15_PT018H.grib2 2026-04-28 04:00 840K
20260428T00Z_MSC_GDPS_TotalTotalsIndex_Sfc_LatLon0.15_PT018H.grib2 2026-04-28 04:00 6.2M
20260428T00Z_MSC_GDPS_UVIndex-ClearSky-Max24h_Sfc_LatLon0.15_PT018H.grib2 2026-04-28 04:52 2.2M
20260428T00Z_MSC_GDPS_UVIndex-ClearSky_Sfc_LatLon0.15_PT018H.grib2 2026-04-28 04:52 1.0M
20260428T00Z_MSC_GDPS_UVIndex-Max24h_Sfc_LatLon0.15_PT018H.grib2 2026-04-28 04:52 3.2M
20260428T00Z_MSC_GDPS_UVIndex_Sfc_LatLon0.15_PT018H.grib2 2026-04-28 04:52 1.5M
20260428T00Z_MSC_GDPS_UpwardLongwaveRadiationFlux_NTAtm_LatLon0.15_PT018H.grib2 2026-04-28 04:00 841K
20260428T00Z_MSC_GDPS_VerticalVelocity_IsbL-0200_LatLon0.15_PT018H.grib2 2026-04-28 04:00 942K
20260428T00Z_MSC_GDPS_VerticalVelocity_IsbL-0250_LatLon0.15_PT018H.grib2 2026-04-28 04:00 1.1M
20260428T00Z_MSC_GDPS_VerticalVelocity_IsbL-0500_LatLon0.15_PT018H.grib2 2026-04-28 04:00 1.3M
20260428T00Z_MSC_GDPS_VerticalVelocity_IsbL-0600_LatLon0.15_PT018H.grib2 2026-04-28 04:00 1.4M
20260428T00Z_MSC_GDPS_VerticalVelocity_IsbL-0700_LatLon0.15_PT018H.grib2 2026-04-28 04:00 1.1M
20260428T00Z_MSC_GDPS_VerticalVelocity_IsbL-0850_LatLon0.15_PT018H.grib2 2026-04-28 04:00 1.4M
20260428T00Z_MSC_GDPS_WindChill_Sfc_LatLon0.15_PT018H.grib2 2026-04-28 04:00 5.3M
20260428T00Z_MSC_GDPS_WindDir_AGL-10m_LatLon0.15_PT018H.grib2 2026-04-28 04:00 1.3M
20260428T00Z_MSC_GDPS_WindDir_AGL-120m_LatLon0.15_PT018H.grib2 2026-04-28 04:00 1.4M
20260428T00Z_MSC_GDPS_WindDir_AGL-40m_LatLon0.15_PT018H.grib2 2026-04-28 04:00 1.4M
20260428T00Z_MSC_GDPS_WindDir_AGL-80m_LatLon0.15_PT018H.grib2 2026-04-28 04:00 1.4M
20260428T00Z_MSC_GDPS_WindDir_IsbL-0001_LatLon0.15_PT018H.grib2 2026-04-28 04:00 667K
20260428T00Z_MSC_GDPS_WindDir_IsbL-0005_LatLon0.15_PT018H.grib2 2026-04-28 04:00 797K
20260428T00Z_MSC_GDPS_WindDir_IsbL-0010_LatLon0.15_PT018H.grib2 2026-04-28 04:00 839K
20260428T00Z_MSC_GDPS_WindDir_IsbL-0020_LatLon0.15_PT018H.grib2 2026-04-28 04:00 958K
20260428T00Z_MSC_GDPS_WindDir_IsbL-0030_LatLon0.15_PT018H.grib2 2026-04-28 04:00 924K
20260428T00Z_MSC_GDPS_WindDir_IsbL-0050_LatLon0.15_PT018H.grib2 2026-04-28 04:00 958K
20260428T00Z_MSC_GDPS_WindDir_IsbL-0100_LatLon0.15_PT018H.grib2 2026-04-28 04:00 1.0M
20260428T00Z_MSC_GDPS_WindDir_IsbL-0150_LatLon0.15_PT018H.grib2 2026-04-28 04:00 1.0M
20260428T00Z_MSC_GDPS_WindDir_IsbL-0175_LatLon0.15_PT018H.grib2 2026-04-28 04:00 1.1M
20260428T00Z_MSC_GDPS_WindDir_IsbL-0200_LatLon0.15_PT018H.grib2 2026-04-28 04:00 1.1M
20260428T00Z_MSC_GDPS_WindDir_IsbL-0225_LatLon0.15_PT018H.grib2 2026-04-28 04:00 1.1M
20260428T00Z_MSC_GDPS_WindDir_IsbL-0250_LatLon0.15_PT018H.grib2 2026-04-28 04:00 1.1M
20260428T00Z_MSC_GDPS_WindDir_IsbL-0275_LatLon0.15_PT018H.grib2 2026-04-28 04:00 1.2M
20260428T00Z_MSC_GDPS_WindDir_IsbL-0300_LatLon0.15_PT018H.grib2 2026-04-28 04:00 1.2M
20260428T00Z_MSC_GDPS_WindDir_IsbL-0350_LatLon0.15_PT018H.grib2 2026-04-28 04:00 1.2M
20260428T00Z_MSC_GDPS_WindDir_IsbL-0400_LatLon0.15_PT018H.grib2 2026-04-28 04:00 1.3M
20260428T00Z_MSC_GDPS_WindDir_IsbL-0450_LatLon0.15_PT018H.grib2 2026-04-28 04:00 1.3M
20260428T00Z_MSC_GDPS_WindDir_IsbL-0500_LatLon0.15_PT018H.grib2 2026-04-28 04:00 1.3M
20260428T00Z_MSC_GDPS_WindDir_IsbL-0550_LatLon0.15_PT018H.grib2 2026-04-28 04:00 1.4M
20260428T00Z_MSC_GDPS_WindDir_IsbL-0600_LatLon0.15_PT018H.grib2 2026-04-28 04:00 1.5M
20260428T00Z_MSC_GDPS_WindDir_IsbL-0650_LatLon0.15_PT018H.grib2 2026-04-28 04:00 1.5M
20260428T00Z_MSC_GDPS_WindDir_IsbL-0700_LatLon0.15_PT018H.grib2 2026-04-28 04:00 1.6M
20260428T00Z_MSC_GDPS_WindDir_IsbL-0750_LatLon0.15_PT018H.grib2 2026-04-28 04:00 1.7M
20260428T00Z_MSC_GDPS_WindDir_IsbL-0800_LatLon0.15_PT018H.grib2 2026-04-28 04:00 1.8M
20260428T00Z_MSC_GDPS_WindDir_IsbL-0850_LatLon0.15_PT018H.grib2 2026-04-28 04:00 1.9M
20260428T00Z_MSC_GDPS_WindDir_IsbL-0875_LatLon0.15_PT018H.grib2 2026-04-28 04:00 2.0M
20260428T00Z_MSC_GDPS_WindDir_IsbL-0900_LatLon0.15_PT018H.grib2 2026-04-28 04:00 2.0M
20260428T00Z_MSC_GDPS_WindDir_IsbL-0925_LatLon0.15_PT018H.grib2 2026-04-28 04:00 2.0M
20260428T00Z_MSC_GDPS_WindDir_IsbL-0950_LatLon0.15_PT018H.grib2 2026-04-28 04:00 2.0M
20260428T00Z_MSC_GDPS_WindDir_IsbL-0970_LatLon0.15_PT018H.grib2 2026-04-28 04:00 2.0M
20260428T00Z_MSC_GDPS_WindDir_IsbL-0985_LatLon0.15_PT018H.grib2 2026-04-28 04:00 2.0M
20260428T00Z_MSC_GDPS_WindDir_IsbL-1000_LatLon0.15_PT018H.grib2 2026-04-28 04:00 2.1M
20260428T00Z_MSC_GDPS_WindDir_IsbL-1015_LatLon0.15_PT018H.grib2 2026-04-28 04:00 2.1M
20260428T00Z_MSC_GDPS_WindGust-Max_AGL-10m_LatLon0.15_PT018H.grib2 2026-04-28 04:00 1.8M
20260428T00Z_MSC_GDPS_WindGust-Min_AGL-10m_LatLon0.15_PT018H.grib2 2026-04-28 04:00 2.1M
20260428T00Z_MSC_GDPS_WindGust_AGL-10m_LatLon0.15_PT018H.grib2 2026-04-28 04:00 2.1M
20260428T00Z_MSC_GDPS_WindSpeed_AGL-10m_LatLon0.15_PT018H.grib2 2026-04-28 04:00 1.1M
20260428T00Z_MSC_GDPS_WindSpeed_AGL-120m_LatLon0.15_PT018H.grib2 2026-04-28 04:00 1.3M
20260428T00Z_MSC_GDPS_WindSpeed_AGL-40m_LatLon0.15_PT018H.grib2 2026-04-28 04:00 1.3M
20260428T00Z_MSC_GDPS_WindSpeed_AGL-80m_LatLon0.15_PT018H.grib2 2026-04-28 04:00 1.3M
20260428T00Z_MSC_GDPS_WindSpeed_IsbL-0001_LatLon0.15_PT018H.grib2 2026-04-28 04:00 650K
20260428T00Z_MSC_GDPS_WindSpeed_IsbL-0005_LatLon0.15_PT018H.grib2 2026-04-28 04:00 701K
20260428T00Z_MSC_GDPS_WindSpeed_IsbL-0010_LatLon0.15_PT018H.grib2 2026-04-28 04:00 639K
20260428T00Z_MSC_GDPS_WindSpeed_IsbL-0020_LatLon0.15_PT018H.grib2 2026-04-28 04:00 677K
20260428T00Z_MSC_GDPS_WindSpeed_IsbL-0030_LatLon0.15_PT018H.grib2 2026-04-28 04:00 875K
20260428T00Z_MSC_GDPS_WindSpeed_IsbL-0050_LatLon0.15_PT018H.grib2 2026-04-28 04:00 1.0M
20260428T00Z_MSC_GDPS_WindSpeed_IsbL-0100_LatLon0.15_PT018H.grib2 2026-04-28 04:00 1.1M
20260428T00Z_MSC_GDPS_WindSpeed_IsbL-0150_LatLon0.15_PT018H.grib2 2026-04-28 04:00 1.0M
20260428T00Z_MSC_GDPS_WindSpeed_IsbL-0175_LatLon0.15_PT018H.grib2 2026-04-28 04:00 1.0M
20260428T00Z_MSC_GDPS_WindSpeed_IsbL-0200_LatLon0.15_PT018H.grib2 2026-04-28 04:00 1.1M
20260428T00Z_MSC_GDPS_WindSpeed_IsbL-0225_LatLon0.15_PT018H.grib2 2026-04-28 04:00 1.1M
20260428T00Z_MSC_GDPS_WindSpeed_IsbL-0250_LatLon0.15_PT018H.grib2 2026-04-28 04:00 1.1M
20260428T00Z_MSC_GDPS_WindSpeed_IsbL-0275_LatLon0.15_PT018H.grib2 2026-04-28 04:00 1.1M
20260428T00Z_MSC_GDPS_WindSpeed_IsbL-0300_LatLon0.15_PT018H.grib2 2026-04-28 04:00 1.1M
20260428T00Z_MSC_GDPS_WindSpeed_IsbL-0350_LatLon0.15_PT018H.grib2 2026-04-28 04:00 1.1M
20260428T00Z_MSC_GDPS_WindSpeed_IsbL-0400_LatLon0.15_PT018H.grib2 2026-04-28 04:00 1.1M
20260428T00Z_MSC_GDPS_WindSpeed_IsbL-0450_LatLon0.15_PT018H.grib2 2026-04-28 04:00 1.1M
20260428T00Z_MSC_GDPS_WindSpeed_IsbL-0500_LatLon0.15_PT018H.grib2 2026-04-28 04:00 1.1M
20260428T00Z_MSC_GDPS_WindSpeed_IsbL-0550_LatLon0.15_PT018H.grib2 2026-04-28 04:00 1.1M
20260428T00Z_MSC_GDPS_WindSpeed_IsbL-0600_LatLon0.15_PT018H.grib2 2026-04-28 04:00 1.1M
20260428T00Z_MSC_GDPS_WindSpeed_IsbL-0650_LatLon0.15_PT018H.grib2 2026-04-28 04:00 1.2M
20260428T00Z_MSC_GDPS_WindSpeed_IsbL-0700_LatLon0.15_PT018H.grib2 2026-04-28 04:00 1.5M
20260428T00Z_MSC_GDPS_WindSpeed_IsbL-0750_LatLon0.15_PT018H.grib2 2026-04-28 04:00 1.6M
20260428T00Z_MSC_GDPS_WindSpeed_IsbL-0800_LatLon0.15_PT018H.grib2 2026-04-28 04:00 1.7M
20260428T00Z_MSC_GDPS_WindSpeed_IsbL-0850_LatLon0.15_PT018H.grib2 2026-04-28 04:00 1.4M
20260428T00Z_MSC_GDPS_WindSpeed_IsbL-0875_LatLon0.15_PT018H.grib2 2026-04-28 04:00 1.5M
20260428T00Z_MSC_GDPS_WindSpeed_IsbL-0900_LatLon0.15_PT018H.grib2 2026-04-28 04:00 1.8M
20260428T00Z_MSC_GDPS_WindSpeed_IsbL-0925_LatLon0.15_PT018H.grib2 2026-04-28 04:00 1.8M
20260428T00Z_MSC_GDPS_WindSpeed_IsbL-0950_LatLon0.15_PT018H.grib2 2026-04-28 04:00 1.9M
20260428T00Z_MSC_GDPS_WindSpeed_IsbL-0970_LatLon0.15_PT018H.grib2 2026-04-28 04:00 1.9M
20260428T00Z_MSC_GDPS_WindSpeed_IsbL-0985_LatLon0.15_PT018H.grib2 2026-04-28 04:00 1.9M
20260428T00Z_MSC_GDPS_WindSpeed_IsbL-1000_LatLon0.15_PT018H.grib2 2026-04-28 04:00 1.9M
20260428T00Z_MSC_GDPS_WindSpeed_IsbL-1015_LatLon0.15_PT018H.grib2 2026-04-28 04:00 1.8M
20260428T00Z_MSC_GDPS_WindU_AGL-10m_LatLon0.15_PT018H.grib2 2026-04-28 04:00 1.3M
20260428T00Z_MSC_GDPS_WindU_AGL-120m_LatLon0.15_PT018H.grib2 2026-04-28 04:00 1.0M
20260428T00Z_MSC_GDPS_WindU_AGL-40m_LatLon0.15_PT018H.grib2 2026-04-28 04:00 1.0M
20260428T00Z_MSC_GDPS_WindU_AGL-80m_LatLon0.15_PT018H.grib2 2026-04-28 04:00 1.0M
20260428T00Z_MSC_GDPS_WindU_IsbL-0001_LatLon0.15_PT018H.grib2 2026-04-28 04:00 504K
20260428T00Z_MSC_GDPS_WindU_IsbL-0005_LatLon0.15_PT018H.grib2 2026-04-28 04:00 701K
20260428T00Z_MSC_GDPS_WindU_IsbL-0010_LatLon0.15_PT018H.grib2 2026-04-28 04:00 713K
20260428T00Z_MSC_GDPS_WindU_IsbL-0020_LatLon0.15_PT018H.grib2 2026-04-28 04:00 743K
20260428T00Z_MSC_GDPS_WindU_IsbL-0030_LatLon0.15_PT018H.grib2 2026-04-28 04:00 750K
20260428T00Z_MSC_GDPS_WindU_IsbL-0050_LatLon0.15_PT018H.grib2 2026-04-28 04:00 706K
20260428T00Z_MSC_GDPS_WindU_IsbL-0100_LatLon0.15_PT018H.grib2 2026-04-28 04:00 929K
20260428T00Z_MSC_GDPS_WindU_IsbL-0150_LatLon0.15_PT018H.grib2 2026-04-28 04:00 1.0M
20260428T00Z_MSC_GDPS_WindU_IsbL-0175_LatLon0.15_PT018H.grib2 2026-04-28 04:00 1.0M
20260428T00Z_MSC_GDPS_WindU_IsbL-0200_LatLon0.15_PT018H.grib2 2026-04-28 04:00 853K
20260428T00Z_MSC_GDPS_WindU_IsbL-0225_LatLon0.15_PT018H.grib2 2026-04-28 04:00 862K
20260428T00Z_MSC_GDPS_WindU_IsbL-0250_LatLon0.15_PT018H.grib2 2026-04-28 04:00 863K
20260428T00Z_MSC_GDPS_WindU_IsbL-0275_LatLon0.15_PT018H.grib2 2026-04-28 04:00 890K
20260428T00Z_MSC_GDPS_WindU_IsbL-0300_LatLon0.15_PT018H.grib2 2026-04-28 04:00 881K
20260428T00Z_MSC_GDPS_WindU_IsbL-0350_LatLon0.15_PT018H.grib2 2026-04-28 04:00 896K
20260428T00Z_MSC_GDPS_WindU_IsbL-0400_LatLon0.15_PT018H.grib2 2026-04-28 04:00 1.1M
20260428T00Z_MSC_GDPS_WindU_IsbL-0450_LatLon0.15_PT018H.grib2 2026-04-28 04:00 1.1M
20260428T00Z_MSC_GDPS_WindU_IsbL-0500_LatLon0.15_PT018H.grib2 2026-04-28 04:00 1.1M
20260428T00Z_MSC_GDPS_WindU_IsbL-0550_LatLon0.15_PT018H.grib2 2026-04-28 04:00 1.1M
20260428T00Z_MSC_GDPS_WindU_IsbL-0600_LatLon0.15_PT018H.grib2 2026-04-28 04:00 1.2M
20260428T00Z_MSC_GDPS_WindU_IsbL-0650_LatLon0.15_PT018H.grib2 2026-04-28 04:00 1.2M
20260428T00Z_MSC_GDPS_WindU_IsbL-0700_LatLon0.15_PT018H.grib2 2026-04-28 04:00 1.2M
20260428T00Z_MSC_GDPS_WindU_IsbL-0750_LatLon0.15_PT018H.grib2 2026-04-28 04:00 1.3M
20260428T00Z_MSC_GDPS_WindU_IsbL-0800_LatLon0.15_PT018H.grib2 2026-04-28 04:00 1.4M
20260428T00Z_MSC_GDPS_WindU_IsbL-0850_LatLon0.15_PT018H.grib2 2026-04-28 04:00 1.4M
20260428T00Z_MSC_GDPS_WindU_IsbL-0875_LatLon0.15_PT018H.grib2 2026-04-28 04:00 1.5M
20260428T00Z_MSC_GDPS_WindU_IsbL-0900_LatLon0.15_PT018H.grib2 2026-04-28 04:00 1.5M
20260428T00Z_MSC_GDPS_WindU_IsbL-0925_LatLon0.15_PT018H.grib2 2026-04-28 04:00 1.5M
20260428T00Z_MSC_GDPS_WindU_IsbL-0950_LatLon0.15_PT018H.grib2 2026-04-28 04:00 1.5M
20260428T00Z_MSC_GDPS_WindU_IsbL-0970_LatLon0.15_PT018H.grib2 2026-04-28 04:00 1.4M
20260428T00Z_MSC_GDPS_WindU_IsbL-0985_LatLon0.15_PT018H.grib2 2026-04-28 04:00 1.4M
20260428T00Z_MSC_GDPS_WindU_IsbL-1000_LatLon0.15_PT018H.grib2 2026-04-28 04:00 1.4M
20260428T00Z_MSC_GDPS_WindU_IsbL-1015_LatLon0.15_PT018H.grib2 2026-04-28 04:00 1.4M
20260428T00Z_MSC_GDPS_WindV_AGL-10m_LatLon0.15_PT018H.grib2 2026-04-28 04:00 1.3M
20260428T00Z_MSC_GDPS_WindV_AGL-120m_LatLon0.15_PT018H.grib2 2026-04-28 04:00 1.0M
20260428T00Z_MSC_GDPS_WindV_AGL-40m_LatLon0.15_PT018H.grib2 2026-04-28 04:00 1.0M
20260428T00Z_MSC_GDPS_WindV_AGL-80m_LatLon0.15_PT018H.grib2 2026-04-28 04:00 1.0M
20260428T00Z_MSC_GDPS_WindV_IsbL-0001_LatLon0.15_PT018H.grib2 2026-04-28 04:00 559K
20260428T00Z_MSC_GDPS_WindV_IsbL-0005_LatLon0.15_PT018H.grib2 2026-04-28 04:00 864K
20260428T00Z_MSC_GDPS_WindV_IsbL-0010_LatLon0.15_PT018H.grib2 2026-04-28 04:00 893K
20260428T00Z_MSC_GDPS_WindV_IsbL-0020_LatLon0.15_PT018H.grib2 2026-04-28 04:00 941K
20260428T00Z_MSC_GDPS_WindV_IsbL-0030_LatLon0.15_PT018H.grib2 2026-04-28 04:00 859K
20260428T00Z_MSC_GDPS_WindV_IsbL-0050_LatLon0.15_PT018H.grib2 2026-04-28 04:00 911K
20260428T00Z_MSC_GDPS_WindV_IsbL-0100_LatLon0.15_PT018H.grib2 2026-04-28 04:00 1.1M
20260428T00Z_MSC_GDPS_WindV_IsbL-0150_LatLon0.15_PT018H.grib2 2026-04-28 04:00 1.0M
20260428T00Z_MSC_GDPS_WindV_IsbL-0175_LatLon0.15_PT018H.grib2 2026-04-28 04:00 1.0M
20260428T00Z_MSC_GDPS_WindV_IsbL-0200_LatLon0.15_PT018H.grib2 2026-04-28 04:00 1.1M
20260428T00Z_MSC_GDPS_WindV_IsbL-0225_LatLon0.15_PT018H.grib2 2026-04-28 04:00 860K
20260428T00Z_MSC_GDPS_WindV_IsbL-0250_LatLon0.15_PT018H.grib2 2026-04-28 04:00 859K
20260428T00Z_MSC_GDPS_WindV_IsbL-0275_LatLon0.15_PT018H.grib2 2026-04-28 04:00 886K
20260428T00Z_MSC_GDPS_WindV_IsbL-0300_LatLon0.15_PT018H.grib2 2026-04-28 04:00 875K
20260428T00Z_MSC_GDPS_WindV_IsbL-0350_LatLon0.15_PT018H.grib2 2026-04-28 04:00 887K
20260428T00Z_MSC_GDPS_WindV_IsbL-0400_LatLon0.15_PT018H.grib2 2026-04-28 04:00 1.1M
20260428T00Z_MSC_GDPS_WindV_IsbL-0450_LatLon0.15_PT018H.grib2 2026-04-28 04:00 1.1M
20260428T00Z_MSC_GDPS_WindV_IsbL-0500_LatLon0.15_PT018H.grib2 2026-04-28 04:00 1.1M
20260428T00Z_MSC_GDPS_WindV_IsbL-0550_LatLon0.15_PT018H.grib2 2026-04-28 04:00 1.1M
20260428T00Z_MSC_GDPS_WindV_IsbL-0600_LatLon0.15_PT018H.grib2 2026-04-28 04:00 1.1M
20260428T00Z_MSC_GDPS_WindV_IsbL-0650_LatLon0.15_PT018H.grib2 2026-04-28 04:00 1.2M
20260428T00Z_MSC_GDPS_WindV_IsbL-0700_LatLon0.15_PT018H.grib2 2026-04-28 04:00 1.2M
20260428T00Z_MSC_GDPS_WindV_IsbL-0750_LatLon0.15_PT018H.grib2 2026-04-28 04:00 1.3M
20260428T00Z_MSC_GDPS_WindV_IsbL-0800_LatLon0.15_PT018H.grib2 2026-04-28 04:00 1.4M
20260428T00Z_MSC_GDPS_WindV_IsbL-0850_LatLon0.15_PT018H.grib2 2026-04-28 04:00 1.4M
20260428T00Z_MSC_GDPS_WindV_IsbL-0875_LatLon0.15_PT018H.grib2 2026-04-28 04:00 1.5M
20260428T00Z_MSC_GDPS_WindV_IsbL-0900_LatLon0.15_PT018H.grib2 2026-04-28 04:00 1.5M
20260428T00Z_MSC_GDPS_WindV_IsbL-0925_LatLon0.15_PT018H.grib2 2026-04-28 04:00 1.5M
20260428T00Z_MSC_GDPS_WindV_IsbL-0950_LatLon0.15_PT018H.grib2 2026-04-28 04:00 1.4M
20260428T00Z_MSC_GDPS_WindV_IsbL-0970_LatLon0.15_PT018H.grib2 2026-04-28 04:00 1.4M
20260428T00Z_MSC_GDPS_WindV_IsbL-0985_LatLon0.15_PT018H.grib2 2026-04-28 04:00 1.4M
20260428T00Z_MSC_GDPS_WindV_IsbL-1000_LatLon0.15_PT018H.grib2 2026-04-28 04:00 1.4M
20260428T00Z_MSC_GDPS_WindV_IsbL-1015_LatLon0.15_PT018H.grib2 2026-04-28 04:00 1.4M